HB9MIR-13 Weather Reports


time (UTC)temp
F
wind
direction
speed
knots
gust
knots
rain 1hr
in
rain 24hr
in
rain mn
in
humidity
%
barometer
mb
20260507162008 64 161 2.6 4.3 0.00 0.00 0.13 49 1012.0
20260507160827 64 216 2.6 4.3 0.00 0.00 0.13 48 1011.9
20260507155701 64 258 2.6 5.2 0.00 0.00 0.13 48 1011.9
20260507154534 65 258 0.0 2.6 0.00 0.00 0.13 47 1012.2
20260507153406 63 185 1.7 5.2 0.00 0.00 0.13 50 1012.0
20260507152238 65 180 1.7 4.3 0.00 0.00 0.13 46 1012.0
20260507151112 65 180 2.6 4.3 0.00 0.00 0.13 47 1012.0
20260507145956 64 212 1.7 4.3 0.00 0.00 0.13 48 1012.2
20260507144816 64 198 1.7 3.5 0.00 0.00 0.13 54 1012.6
20260507143649 62 222 1.7 3.5 0.00 0.00 0.13 53 1012.6
20260507142523 63 198 1.7 3.5 0.00 0.00 0.13 52 1011.9
20260507141354 65 210 3.5 4.3 0.00 0.00 0.13 50 1012.4
20260507140227 63 186 0.0 6.1 0.00 0.00 0.13 57 1012.4
20260507135059 64 194 2.6 4.3 0.00 0.00 0.13 55 1012.1
20260507133944 63 160 2.6 5.2 0.00 0.00 0.13 54 1012.7
20260507132802 62 196 2.6 2.6 0.00 0.00 0.13 51 1012.9
20260507131633 63 174 1.7 4.3 0.00 0.00 0.13 53 1013.5
20260507130506 63 192 4.3 5.2 0.00 0.00 0.13 59 1012.8
20260507125339 63 192 3.5 5.2 0.00 0.00 0.13 54 1013.0
20260507124123 62 252 1.7 4.3 0.00 0.00 0.13 56 1013.0
20260507122941 62 278 1.7 4.3 0.00 0.00 0.13 59 1013.1
20260507121815 62 69 0.9 4.3 0.00 0.00 0.13 64 1013.7
20260507120647 60 300 0.0 6.1 0.00 0.00 0.13 63 1012.8
20260507115518 60 228 4.3 5.2 0.00 0.00 0.13 61 1013.1
20260507114351 63 171 4.3 4.3 0.00 0.00 0.13 62 1013.5
20260507113222 62 234 3.5 4.3 0.00 0.00 0.13 63 1013.4
20260507112107 60 87 3.5 4.3 0.00 0.00 0.13 64 1013.1
20260507110925 60 194 3.5 4.3 0.00 0.00 0.13 72 1013.8
20260507105758 58 192 2.6 3.5 0.00 0.00 0.13 68 1013.8
20260507104630 57 204 2.6 2.6 0.00 0.00 0.13 66 1013.4
20260507103502 57 330 0.0 1.7 0.00 0.00 0.13 68 1013.7
20260507102246 56 246 2.6 3.5 0.00 0.00 0.13 69 1013.4
20260507101106 57 240 0.0 4.3 0.00 0.00 0.13 73 1013.3
20260507095938 57 224 2.6 4.3 0.00 0.00 0.13 73 1013.5
20260507094812 57 264 1.7 2.6 0.00 0.00 0.13 73 1014.0
20260507093644 55 0 0.0 2.6 0.00 0.00 0.13 80 1013.8
20260507092517 55 282 0.0 2.6 0.00 0.00 0.13 78 1013.8
20260507091351 55 204 1.7 2.6 0.00 0.00 0.13 78 1013.7
20260507090236 55 240 0.0 2.6 0.00 0.00 0.13 81 1013.5
20260507085056 55 192 0.9 1.7 0.00 0.00 0.13 83 1013.4
20260507083929 54 234 1.7 4.3 0.00 0.00 0.13 82 1013.4
20260507082802 53 186 1.7 2.6 0.00 0.00 0.13 85 1013.6
20260507081635 52 198 2.6 2.6 0.01 0.00 0.13 88 1013.5
20260507080508 52 240 0.9 2.6 0.01 0.00 0.13 87 1013.5
20260507075340 51 222 1.7 4.3 0.01 0.00 0.13 87 1013.4
20260507074224 52 270 0.9 1.7 0.01 0.00 0.13 89 1013.4
20260507073051 51 198 0.9 1.7 0.01 0.00 0.13 93 1013.3
20260507071915 51 216 1.7 1.7 0.00 0.00 0.12 92 1013.3
20260507070749 51 240 1.7 1.7 0.01 0.00 0.12 92 1013.2
20260507065621 51 198 0.0 1.7 0.02 0.00 0.12 94 1013.1
20260507064405 50 240 0.0 1.7 0.02 0.00 0.12 95 1013.1
20260507063226 50 246 0.0 1.7 0.03 0.00 0.12 96 1013.0
20260507062059 50 264 0.0 0.9 0.04 0.00 0.12 96 1013.0
20260507060931 50 252 1.7 1.7 0.03 0.00 0.11 96 1013.0
20260507055803 50 174 0.9 1.7 0.02 0.00 0.10 97 1012.9
20260507054547 49 276 1.7 1.7 0.03 0.00 0.10 97 1012.8
20260507053406 49 222 0.0 1.7 0.03 0.00 0.10 97 1012.7
20260507052239 49 186 1.7 1.7 0.01 0.00 0.08 96 1012.5
20260507051110 49 186 1.7 1.7 0.01 0.00 0.08 97 1012.4
20260507045943 49 173 1.7 1.7 0.01 0.00 0.08 97 1012.2
20260507044728 49 192 0.0 0.9 0.00 0.00 0.07 97 1012.0
20260507043546 48 198 0.0 0.9 0.00 0.00 0.07 97 1011.9
20260507042418 48 222 0.9 2.6 0.02 0.00 0.07 98 1011.8
20260507041252 48 198 0.9 1.7 0.03 0.00 0.07 98 1011.8
20260507040125 48 222 0.9 1.7 0.05 0.00 0.07 98 1011.8
20260507034909 48 180 0.9 2.6 0.06 0.00 0.07 98 1011.6
20260507033728 48 228 0.9 1.7 0.06 0.00 0.07 98 1011.6
20260507032600 48 234 0.0 1.7 0.05 0.00 0.06 98 1011.6
20260507031434 48 186 0.0 1.7 0.05 0.00 0.06 98 1011.5
20260507030307 48 192 0.0 0.9 0.04 0.00 0.04 98 1011.5
20260507025050 48 192 0.9 1.7 0.04 0.00 0.04 97 1011.5
20260507023909 48 174 1.7 1.7 0.03 0.00 0.03 97 1011.4
20260507022742 48 210 1.7 1.7 0.03 0.00 0.03 96 1011.3
20260507021613 48 186 2.6 2.6 0.02 0.00 0.02 95 1011.2
20260507020446 48 162 1.7 2.6 0.01 0.00 0.01 95 1011.2
20260507015231 49 222 1.7 2.6 0.00 0.00 0.00 92 1011.2
20260507014050 49 174 1.7 2.6 0.00 0.00 0.00 92 1011.0
20260507012924 49 228 0.0 0.9 0.00 0.00 0.00 91 1010.9
20260507011756 49 222 0.9 0.9 0.00 0.00 0.00 91 1010.9
20260507010630 49 186 0.0 1.7 0.00 0.00 0.00 90 1010.8
20260507005502 49 210 0.9 1.7 0.00 0.00 0.00 89 1010.8
20260507004337 49 186 0.0 2.6 0.00 0.00 0.00 88 1010.7
20260507003222 49 168 0.0 2.6 0.00 0.00 0.00 89 1010.6
20260507002042 49 162 1.7 1.7 0.00 0.00 0.00 90 1010.5
20260507000913 49 198 0.0 0.9 0.00 0.00 0.00 91 1010.5
20260506235747 49 204 1.7 1.7 0.00 0.00 0.00 91 1010.4
20260506234619 49 186 0.0 0.9 0.00 0.00 0.00 92 1010.5
20260506233452 49 204 0.0 0.9 0.00 0.00 0.00 92 1010.5
20260506232325 49 192 1.7 2.6 0.00 0.00 0.00 93 1010.5
20260506223414 47 204 1.7 1.7 0.00 0.00 0.20 95 1010.4
20260506222245 48 192 0.0 0.9 0.00 0.00 0.20 96 1010.4
20260506221118 48 198 0.9 0.9 0.00 0.00 0.20 95 1010.4
20260506215950 48 192 0.0 0.0 0.00 0.00 0.20 97 1010.5
20260506214821 48 198 0.0 0.9 0.00 0.00 0.20 95 1010.4
20260506213653 49 180 0.0 0.0 0.00 0.00 0.20 93 1010.4
20260506212538 50 198 0.0 0.9 0.00 0.00 0.20 93 1010.4
20260506211358 50 228 0.0 0.9 0.00 0.00 0.20 94 1010.4
20260506210230 50 240 0.0 0.0 0.00 0.00 0.20 93 1010.5
20260506205105 50 192 0.0 0.0 0.00 0.00 0.20 93 1010.3
20260506203935 49 204 0.0 0.0 0.00 0.00 0.20 93 1010.2
20260506202719 48 258 0.9 1.7 0.00 0.00 0.20 94 1010.0
20260506201538 48 246 0.0 0.0 0.00 0.00 0.20 97 1009.8
20260506200411 48 228 0.0 0.9 0.00 0.00 0.20 95 1009.6
20260506195244 49 198 0.0 1.7 0.00 0.00 0.20 93 1009.6
20260506194118 49 192 1.7 1.7 0.00 0.00 0.20 92 1009.5
20260506192902 50 174 0.9 1.7 0.00 0.00 0.20 92 1009.3
20260506191721 50 216 0.9 1.7 0.00 0.00 0.20 91 1009.3
20260506190554 50 198 1.7 2.6 0.00 0.00 0.20 91 1009.2
20260506185427 51 168 1.7 2.6 0.00 0.00 0.20 91 1009.1
20260506184300 51 204 1.7 1.7 0.00 0.00 0.20 91 1009.0
20260506183043 51 192 0.0 2.6 0.00 0.00 0.20 91 1008.8
20260506181902 52 210 1.7 1.7 0.00 0.00 0.20 90 1008.6
20260506180735 52 162 1.7 1.7 0.00 0.00 0.20 91 1008.6
20260506175608 52 168 1.7 1.7 0.00 0.00 0.20 92 1008.6
20260506174442 52 240 0.0 1.7 0.00 0.00 0.20 92 1008.4
20260506173313 53 161 1.7 1.7 0.00 0.00 0.20 87 1008.3
20260506172146 53 210 0.9 0.9 0.00 0.00 0.20 88 1008.0
20260506171031 53 270 0.0 0.9 0.00 0.00 0.20 89 1008.0
20260506165850 53 120 0.0 1.7 0.00 0.00 0.20 88 1007.9
20260506164723 53 192 0.0 1.7 0.00 0.00 0.20 86 1007.8
20260506163554 53 216 0.9 2.6 0.00 0.00 0.20 86 1007.8
20260506162426 53 240 1.7 1.7 0.00 0.00 0.20 85 1007.7